Weather History for Tahlequah, OK

Change the Weather History Date:

Tuesday, May 1, 2012

  Actual Average (KMKO) Record (KMKO)
Temperature  
Mean Temperature 70 °F -  
Max Temperature 80 °F 74 °F 88 °F (2002)
Min Temperature 59 °F 52 °F 37 °F (2005)
Cooling Degree Days 4    
Growing Degree Days 20 (Base 50)    
Moisture  
Dew Point 64 °F    
Average Humidity 80    
Maximum Humidity 100    
Minimum Humidity 61    
Precipitation  
Precipitation 0.02 in - - ()
Sea Level Pressure  
Sea Level Pressure 29.87 in    
Wind  
Wind Speed 10 mph (SSE)    
Max Wind Speed 20 mph    
Max Gust Speed 31 mph    
Visibility 9 miles    
Events      
Averages and records for this station are not official NWS values.
T = Trace of Precipitation, MM = Missing Value Source: NWS Daily Summary

Daily Weather History Graph

Daily Weather History Graph

Search for Another Location

Airport:

Trip Planner

Search our weather history database for the weather conditions in past years. The results will help you decide how hot, cold, wet, or windy it might be!

Date:

Astronomy

May. 01, 2012 Rise Set
Actual Time 6:27 AM CDT 8:07 PM CDT
Civil Twilight 5:59 AM CDT 8:35 PM CDT
Nautical Twilight 5:26 AM CDT 9:08 PM CDT
Astronomical Twilight 4:51 AM CDT 9:43 PM CDT
Moon 3:20 PM CDT 3:14 AM CDT
Length of Visible Light 14h 35m
Length of Day
13h 40m
Waxing Gibbous, 74% of the Moon is Illuminated
May 1
Waxing Gibbous
May 5
Full
May 12
Last Quarter
May 20
New
May 28
First Quarter

Hourly Weather History & Observations

Time (CDT) Temp. Heat Index Dew Point Humidity Pressure Visibility Wind Dir Wind Speed Gust Speed Precip Events Conditions
12:15 AM 68.0 °F - 64.4 °F 88% 29.92 in 10.0 mi South 9.2 mph 16.1 mph N/A   Clear
12:35 AM 68.0 °F - 64.4 °F 88% 29.91 in 10.0 mi South 10.4 mph 18.4 mph N/A   Clear
12:55 AM 68.0 °F - 64.4 °F 88% 29.91 in 10.0 mi SSE 8.1 mph - N/A   Clear
1:15 AM 68.0 °F - 64.4 °F 88% 29.91 in 10.0 mi South 11.5 mph 18.4 mph N/A   Clear
1:35 AM 68.0 °F - 64.4 °F 88% 29.92 in 10.0 mi South 5.8 mph - N/A   Scattered Clouds
1:55 AM 68.0 °F - 64.4 °F 88% 29.92 in 10.0 mi SSE 5.8 mph - N/A   Mostly Cloudy
2:15 AM 68.0 °F - 64.4 °F 88% 29.92 in 10.0 mi SSE 5.8 mph - N/A   Scattered Clouds
2:35 AM 68.0 °F - 64.4 °F 88% 29.90 in 10.0 mi SSE 6.9 mph - N/A   Scattered Clouds
2:55 AM 68.0 °F - 64.4 °F 88% 29.92 in 2.0 mi West 13.8 mph 19.6 mph N/A   Mostly Cloudy
3:15 AM 64.4 °F - 60.8 °F 88% 29.94 in 3.0 mi SW 8.1 mph 18.4 mph N/A   Overcast
3:35 AM 60.8 °F - 59.0 °F 94% 29.96 in 4.0 mi SW 6.9 mph - N/A   Overcast
3:55 AM 59.0 °F - 59.0 °F 100% 29.98 in 4.0 mi SW 5.8 mph - 0.01 in   Overcast
4:15 AM 59.0 °F - 57.2 °F 94% 29.93 in 3.0 mi ESE 4.6 mph - N/A   Overcast
4:35 AM 59.0 °F - 59.0 °F 100% 29.92 in 7.0 mi East 3.5 mph - N/A   Mostly Cloudy
4:55 AM 59.0 °F - 59.0 °F 100% 29.89 in 5.0 mi ESE 8.1 mph - N/A   Scattered Clouds
5:15 AM 59.0 °F - 59.0 °F 100% 29.89 in 10.0 mi SE 3.5 mph - N/A   Scattered Clouds
5:35 AM 59.0 °F - 59.0 °F 100% 29.90 in 7.0 mi SE 5.8 mph - N/A   Scattered Clouds
5:55 AM 59.0 °F - 59.0 °F 100% 29.85 in 10.0 mi SSE 13.8 mph - N/A   Scattered Clouds
6:15 AM 59.0 °F - 59.0 °F 100% 29.89 in 10.0 mi SSE 9.2 mph - N/A   Clear
6:35 AM 59.0 °F - 59.0 °F 100% 29.90 in 10.0 mi SSE 9.2 mph - N/A   Clear
6:55 AM 59.0 °F - 59.0 °F 100% 29.91 in 10.0 mi SSE 4.6 mph - N/A   Clear
7:15 AM 59.0 °F - 59.0 °F 100% 29.91 in 10.0 mi SSE 8.1 mph - N/A   Scattered Clouds
7:55 AM 60.8 °F - 60.8 °F 100% 29.92 in 10.0 mi SE 6.9 mph - N/A   Clear
8:15 AM 60.8 °F - 60.8 °F 100% 29.90 in 10.0 mi SE 5.8 mph - N/A   Clear
8:35 AM 60.8 °F - 60.8 °F 100% 29.91 in 10.0 mi SSE 8.1 mph - N/A   Clear
8:55 AM 62.6 °F - 62.6 °F 100% 29.90 in 10.0 mi South 12.7 mph 21.9 mph N/A   Clear
9:15 AM 64.4 °F - 62.6 °F 94% 29.91 in 10.0 mi SSE 11.5 mph 20.7 mph N/A   Clear
9:35 AM 68.0 °F - 64.4 °F 88% 29.90 in 10.0 mi South 13.8 mph 25.3 mph N/A   Clear
9:55 AM 69.8 °F - 64.4 °F 83% 29.90 in 10.0 mi South 15.0 mph 23.0 mph N/A   Scattered Clouds
10:15 AM 71.6 °F - 66.2 °F 83% 29.90 in 10.0 mi South 19.6 mph 25.3 mph N/A   Scattered Clouds
10:35 AM 71.6 °F - 66.2 °F 83% 29.90 in 10.0 mi South 16.1 mph 24.2 mph N/A   Clear
11:35 AM 75.2 °F - 66.2 °F 73% 29.89 in 10.0 mi South 16.1 mph 31.1 mph N/A   Scattered Clouds
11:55 AM 75.2 °F - 66.2 °F 73% 29.89 in 10.0 mi South 15.0 mph 27.6 mph N/A   Scattered Clouds
12:15 PM 77.0 °F - 66.2 °F 69% 29.89 in 10.0 mi South 19.6 mph 26.5 mph N/A   Mostly Cloudy
12:35 PM 77.0 °F - 66.2 °F 69% 29.89 in 10.0 mi South 12.7 mph 23.0 mph N/A   Mostly Cloudy
12:55 PM 77.0 °F - 64.4 °F 65% 29.89 in 10.0 mi South 16.1 mph 23.0 mph N/A   Mostly Cloudy
1:15 PM 77.0 °F - 64.4 °F 65% 29.88 in 10.0 mi South 18.4 mph 25.3 mph N/A   Mostly Cloudy
1:35 PM 77.0 °F - 64.4 °F 65% 29.87 in 10.0 mi South 17.3 mph 24.2 mph N/A   Mostly Cloudy
1:55 PM 77.0 °F - 66.2 °F 69% 29.87 in 10.0 mi South 19.6 mph 23.0 mph N/A   Mostly Cloudy
2:15 PM 78.8 °F - 66.2 °F 65% 29.87 in 10.0 mi South 16.1 mph 23.0 mph N/A   Scattered Clouds
2:55 PM 80.6 °F 83.2 °F 68.0 °F 65% 29.85 in 10.0 mi South 15.0 mph - N/A   Scattered Clouds
3:15 PM 80.6 °F 82.7 °F 66.2 °F 61% 29.84 in 10.0 mi South 18.4 mph 25.3 mph N/A   Scattered Clouds
3:35 PM 80.6 °F 83.2 °F 68.0 °F 65% 29.83 in 10.0 mi South 17.3 mph 23.0 mph N/A   Clear
3:55 PM 80.6 °F 82.7 °F 66.2 °F 61% 29.82 in 10.0 mi SSE 16.1 mph 25.3 mph N/A   Scattered Clouds
4:15 PM 80.6 °F 83.2 °F 68.0 °F 65% 29.82 in 10.0 mi South 12.7 mph 24.2 mph N/A   Scattered Clouds
4:35 PM 80.6 °F 83.2 °F 68.0 °F 65% 29.82 in 10.0 mi South 16.1 mph 21.9 mph N/A   Clear
4:55 PM 80.6 °F 83.2 °F 68.0 °F 65% 29.81 in 10.0 mi SSE 13.8 mph 19.6 mph N/A   Clear
5:15 PM 80.6 °F 82.7 °F 66.2 °F 61% 29.81 in 10.0 mi South 16.1 mph 23.0 mph N/A   Clear
5:35 PM 80.6 °F 82.7 °F 66.2 °F 61% 29.81 in 10.0 mi South 15.0 mph 20.7 mph 0.01 in   Clear
5:55 PM 80.6 °F 82.7 °F 66.2 °F 61% 29.80 in 10.0 mi South 17.3 mph 24.2 mph 0.01 in   Clear
6:15 PM 80.6 °F 82.7 °F 66.2 °F 61% 29.79 in 10.0 mi South 15.0 mph 20.7 mph N/A   Clear
6:35 PM 78.8 °F - 64.4 °F 61% 29.79 in 10.0 mi SSE 11.5 mph 24.2 mph N/A   Clear
6:55 PM 78.8 °F - 64.4 °F 61% 29.80 in 10.0 mi South 10.4 mph 23.0 mph N/A   Clear
7:15 PM 78.8 °F - 64.4 °F 61% 29.80 in 10.0 mi South 10.4 mph 17.3 mph N/A   Clear
7:35 PM 77.0 °F - 64.4 °F 65% 29.80 in 10.0 mi South 8.1 mph - N/A   Clear
7:55 PM 77.0 °F - 64.4 °F 65% 29.80 in 10.0 mi South 8.1 mph - N/A   Clear
8:15 PM 73.4 °F - 64.4 °F 73% 29.81 in 10.0 mi South 8.1 mph - N/A   Clear
8:35 PM 73.4 °F - 64.4 °F 73% 29.82 in 10.0 mi South 6.9 mph - N/A   Clear
8:55 PM 71.6 °F - 64.4 °F 78% 29.82 in 10.0 mi South 5.8 mph - N/A   Clear
9:15 PM 71.6 °F - 64.4 °F 78% 29.83 in 10.0 mi South 5.8 mph - N/A   Clear
9:35 PM 71.6 °F - 64.4 °F 78% 29.84 in 10.0 mi South 8.1 mph - N/A   Clear
9:55 PM 71.6 °F - 64.4 °F 78% 29.84 in 10.0 mi SSE 6.9 mph - N/A   Clear
10:15 PM 71.6 °F - 64.4 °F 78% 29.84 in 10.0 mi SSE 5.8 mph - N/A   Clear
10:35 PM 71.6 °F - 64.4 °F 78% 29.85 in 10.0 mi SSE 5.8 mph - N/A   Clear
10:55 PM 69.8 °F - 62.6 °F 78% 29.85 in 10.0 mi SSE 5.8 mph - N/A   Clear
11:15 PM 69.8 °F - 62.6 °F 78% 29.85 in 10.0 mi SSE 3.5 mph - N/A   Clear
11:35 PM 69.8 °F - 62.6 °F 78% 29.85 in 10.0 mi South 4.6 mph - N/A   Clear
11:55 PM 69.8 °F - 62.6 °F 78% 29.84 in 10.0 mi SSE 8.1 mph - N/A   Clear